Location: *
(28.3744°N, 81.5492°W)
Time: 03:55:31
(UTC+00:00)

Cosmos 2100 Rocket - Pass Details

Date: 15 June 2025
Orbit: 954 x 1001 km, 82.9° (Epoch: 11 July)

Event Time Altitude Azimuth Distance (km) Brightness Sun altitude
Rises 02:58:28 0° 354° (N) 3,640 7.8 -27.2°
Reaches altitude 10° 03:00:58 10° 355° (N) 2,688 7.0 -27.5°
Maximum altitude 03:07:07 89° 263° (W) 958 3.8 -28.3°
Enters shadow 03:07:30 80° 180° (S) 970 3.8 -28.4°
